TimeCDT,TemperatureF,Dew PointF,Humidity,Sea Level PressureIn,VisibilityMPH,Wind Direction,Wind SpeedMPH,Gust SpeedMPH,PrecipitationIn,Events,Conditions,WindDirDegrees,DateUTC
12:15 AM,55.4,42.8,63,29.38,10.0,East,10.4,-,N/A,,Mostly Cloudy,100,2013-04-30 05:15:00
12:35 AM,55.4,44.6,67,29.36,10.0,ESE,9.2,-,N/A,,Mostly Cloudy,110,2013-04-30 05:35:00
12:55 AM,57.2,44.6,63,29.34,10.0,ESE,13.8,21.9,N/A,,Mostly Cloudy,120,2013-04-30 05:55:00
1:15 AM,57.2,44.6,63,29.32,10.0,SE,17.3,23.0,N/A,,Mostly Cloudy,130,2013-04-30 06:15:00
1:35 AM,57.2,46.4,67,29.31,10.0,SE,16.1,20.7,N/A,,Scattered Clouds,140,2013-04-30 06:35:00
1:55 AM,57.2,46.4,67,29.29,10.0,SE,18.4,-,N/A,,Scattered Clouds,140,2013-04-30 06:55:00
2:15 AM,57.2,48.2,72,29.27,10.0,SE,17.3,23.0,N/A,,Mostly Cloudy,130,2013-04-30 07:15:00
2:35 AM,59.0,48.2,67,29.26,10.0,SE,18.4,25.3,N/A,,Mostly Cloudy,130,2013-04-30 07:35:00
2:55 AM,59.0,48.2,67,29.24,10.0,SE,17.3,24.2,N/A,,Mostly Cloudy,140,2013-04-30 07:55:00
3:15 AM,55.4,48.2,77,29.28,10.0,South,6.9,31.1,N/A,,Mostly Cloudy,190,2013-04-30 08:15:00
3:35 AM,55.4,48.2,77,29.28,10.0,South,4.6,-,N/A,,Scattered Clouds,190,2013-04-30 08:35:00
3:55 AM,53.6,48.2,82,29.28,10.0,SSW,3.5,-,N/A,,Clear,210,2013-04-30 08:55:00
4:15 AM,53.6,48.2,82,29.27,10.0,South,4.6,-,N/A,,Clear,190,2013-04-30 09:15:00
4:35 AM,50.0,46.4,87,29.28,10.0,WNW,5.8,9.2,N/A,,Clear,290,2013-04-30 09:35:00
4:55 AM,46.4,42.8,87,29.32,10.0,NNW,23.0,33.4,N/A,,Clear,330,2013-04-30 09:55:00
5:15 AM,46.4,42.8,87,29.33,10.0,NW,17.3,-,N/A,,Clear,320,2013-04-30 10:15:00
5:35 AM,46.4,42.8,87,29.36,10.0,NW,19.6,-,N/A,,Clear,320,2013-04-30 10:35:00
5:55 AM,44.6,41.0,87,29.39,10.0,WNW,24.2,-,N/A,,Clear,300,2013-04-30 10:55:00
6:15 AM,44.6,41.0,87,29.39,10.0,NW,16.1,25.3,N/A,,Clear,320,2013-04-30 11:15:00
6:35 AM,46.4,42.8,87,29.42,10.0,WNW,17.3,-,N/A,,Clear,300,2013-04-30 11:35:00
6:55 AM,46.4,42.8,87,29.44,10.0,WNW,17.3,-,N/A,,Scattered Clouds,300,2013-04-30 11:55:00
7:15 AM,48.2,42.8,82,29.47,10.0,WNW,17.3,25.3,N/A,,Mostly Cloudy,290,2013-04-30 12:15:00
7:35 AM,48.2,42.8,82,29.48,10.0,West,13.8,-,N/A,,Overcast,280,2013-04-30 12:35:00
7:55 AM,48.2,44.6,87,29.51,10.0,West,11.5,-,N/A,,Overcast,270,2013-04-30 12:55:00
8:15 AM,50.0,44.6,82,29.51,10.0,WNW,12.7,-,N/A,,Overcast,290,2013-04-30 13:15:00
8:35 AM,50.0,44.6,82,29.52,10.0,West,13.8,-,N/A,,Overcast,270,2013-04-30 13:35:00
8:55 AM,51.8,44.6,76,29.54,10.0,West,19.6,-,N/A,,Scattered Clouds,270,2013-04-30 13:55:00
9:15 AM,53.6,42.8,67,29.55,10.0,West,19.6,25.3,N/A,,Clear,280,2013-04-30 14:15:00
9:35 AM,55.4,39.2,54,29.56,10.0,WNW,23.0,33.4,N/A,,Clear,290,2013-04-30 14:35:00
9:55 AM,55.4,37.4,51,29.56,10.0,WNW,25.3,31.1,N/A,,Clear,290,2013-04-30 14:55:00
10:15 AM,57.2,35.6,44,29.57,10.0,WNW,23.0,27.6,N/A,,Clear,290,2013-04-30 15:15:00
10:35 AM,57.2,33.8,41,29.58,10.0,West,23.0,26.5,N/A,,Clear,280,2013-04-30 15:35:00
10:55 AM,59.0,35.6,42,29.60,10.0,West,21.9,28.8,N/A,,Clear,280,2013-04-30 15:55:00
11:15 AM,59.0,35.6,42,29.60,10.0,West,25.3,29.9,N/A,,Clear,270,2013-04-30 16:15:00
11:35 AM,59.0,33.8,39,29.61,10.0,West,24.2,32.2,N/A,,Clear,270,2013-04-30 16:35:00
11:55 AM,59.0,33.8,39,29.62,10.0,West,29.9,34.5,N/A,,Clear,270,2013-04-30 16:55:00
12:15 PM,57.2,33.8,41,29.64,10.0,West,28.8,35.7,N/A,,Clear,270,2013-04-30 17:15:00
12:55 PM,57.2,35.6,44,29.65,10.0,WNW,29.9,38.0,N/A,,Clear,290,2013-04-30 17:55:00
1:15 PM,57.2,35.6,44,29.66,10.0,West,25.3,34.5,N/A,,Clear,270,2013-04-30 18:15:00
1:35 PM,57.2,33.8,41,29.67,10.0,WNW,25.3,38.0,N/A,,Clear,290,2013-04-30 18:35:00
1:55 PM,59.0,33.8,39,29.67,10.0,WNW,29.9,35.7,N/A,,Clear,300,2013-04-30 18:55:00
2:15 PM,59.0,33.8,39,29.68,10.0,West,28.8,34.5,N/A,,Clear,280,2013-04-30 19:15:00
2:35 PM,59.0,33.8,39,29.69,10.0,WNW,25.3,35.7,N/A,,Clear,290,2013-04-30 19:35:00
2:55 PM,59.0,33.8,39,29.69,10.0,WNW,29.9,34.5,N/A,,Clear,300,2013-04-30 19:55:00
3:35 PM,59.0,33.8,39,29.72,10.0,West,28.8,34.5,N/A,,Clear,280,2013-04-30 20:35:00
3:55 PM,59.0,33.8,39,29.74,10.0,West,24.2,32.2,N/A,,Clear,280,2013-04-30 20:55:00
4:15 PM,57.2,32.0,38,29.75,10.0,West,24.2,29.9,N/A,,Clear,280,2013-04-30 21:15:00
4:35 PM,55.4,32.0,41,29.76,10.0,West,24.2,28.8,N/A,,Clear,280,2013-04-30 21:35:00
4:55 PM,55.4,32.0,41,29.77,10.0,WNW,23.0,28.8,N/A,,Clear,290,2013-04-30 21:55:00
5:15 PM,53.6,32.0,44,29.79,10.0,WNW,20.7,28.8,N/A,,Clear,290,2013-04-30 22:15:00
5:35 PM,53.6,32.0,44,29.81,10.0,West,17.3,-,N/A,,Clear,280,2013-04-30 22:35:00
5:55 PM,53.6,32.0,44,29.82,10.0,West,17.3,-,N/A,,Clear,280,2013-04-30 22:55:00
6:35 PM,51.8,32.0,47,29.86,10.0,West,20.7,-,N/A,,Clear,280,2013-04-30 23:35:00
6:55 PM,51.8,32.0,47,29.88,10.0,WNW,18.4,24.2,N/A,,Clear,300,2013-04-30 23:55:00
7:15 PM,51.8,32.0,47,29.89,10.0,NW,17.3,25.3,N/A,,Clear,310,2013-05-01 00:15:00
7:35 PM,51.8,32.0,47,29.90,10.0,NW,20.7,28.8,N/A,,Clear,310,2013-05-01 00:35:00
7:55 PM,50.0,32.0,50,29.92,10.0,NW,21.9,26.5,N/A,,Clear,310,2013-05-01 00:55:00
8:15 PM,48.2,32.0,54,29.94,10.0,NW,20.7,26.5,N/A,,Clear,310,2013-05-01 01:15:00
8:35 PM,46.4,32.0,57,29.94,10.0,NW,18.4,24.2,N/A,,Clear,310,2013-05-01 01:35:00
8:55 PM,44.6,32.0,61,29.96,10.0,NW,18.4,-,N/A,,Clear,310,2013-05-01 01:55:00
9:15 PM,44.6,32.0,61,29.97,10.0,NW,18.4,23.0,N/A,,Clear,320,2013-05-01 02:15:00
9:35 PM,42.8,30.2,61,29.99,10.0,NW,17.3,24.2,N/A,,Clear,320,2013-05-01 02:35:00
9:55 PM,41.0,30.2,65,30.00,10.0,NW,16.1,24.2,N/A,,Clear,320,2013-05-01 02:55:00
10:15 PM,39.2,28.4,65,30.02,10.0,NW,23.0,27.6,N/A,,Clear,320,2013-05-01 03:15:00
10:35 PM,37.4,28.4,70,30.03,10.0,NW,20.7,25.3,N/A,,Clear,310,2013-05-01 03:35:00
10:55 PM,37.4,28.4,70,30.05,10.0,NW,20.7,29.9,N/A,,Clear,310,2013-05-01 03:55:00
11:15 PM,37.4,28.4,70,30.06,10.0,NW,16.1,21.9,N/A,,Clear,320,2013-05-01 04:15:00
11:35 PM,37.4,28.4,70,30.07,10.0,NW,20.7,-,N/A,,Clear,310,2013-05-01 04:35:00
11:55 PM,35.6,26.6,70,30.07,10.0,NW,17.3,23.0,N/A,,Clear,320,2013-05-01 04:55:00